Time,TemperatureF,DewpointF,PressureIn,WindDirection,WindDirectionDegrees,WindSpeedMPH,WindSpeedGustMPH,Humidity,HourlyPrecipIn,Conditions,Clouds,dailyrainin,SoftwareType,DateUTC
2013-07-07 01:11:00,82.0,71.0,30.10,West,275,0.0,0.0,69,0.00,,,0.00,,2013-07-07 05:11:00,
2013-07-07 01:21:00,82.0,71.0,30.10,West,275,0.0,0.0,69,0.00,,,0.00,,2013-07-07 05:21:00,
2013-07-07 01:31:00,82.0,71.0,30.10,West,275,0.0,0.0,69,0.00,,,0.00,,2013-07-07 05:31:00,
2013-07-07 01:41:00,77.0,71.0,30.10,ESE,120,0.0,0.0,82,0.00,,,0.00,,2013-07-07 05:41:00,
2013-07-07 01:51:00,77.0,71.0,30.10,ESE,120,0.0,0.0,82,0.00,,,0.00,,2013-07-07 05:51:00,
2013-07-07 02:01:00,77.0,71.0,30.10,ESE,120,0.0,0.0,82,0.00,,,0.00,,2013-07-07 06:01:00,
2013-07-07 02:11:00,76.0,71.0,30.10,East,100,0.0,0.0,85,0.00,,,0.00,,2013-07-07 06:11:00,
2013-07-07 02:21:00,76.0,71.0,30.10,East,100,0.0,0.0,85,0.00,,,0.00,,2013-07-07 06:21:00,
2013-07-07 02:32:00,75.0,72.0,30.10,SSE,150,0.0,0.0,90,0.00,,,0.00,,2013-07-07 06:32:00,
2013-07-07 02:43:00,75.0,72.0,30.10,SSE,150,0.0,0.0,90,0.00,,,0.00,,2013-07-07 06:43:00,
2013-07-07 02:52:00,75.0,72.0,30.10,SSE,150,0.0,0.0,91,0.00,,,0.00,,2013-07-07 06:52:00,
2013-07-07 03:02:00,76.0,74.0,30.10,SW,230,0.0,0.0,92,0.00,,,0.00,,2013-07-07 07:02:00,
2013-07-07 03:11:00,76.0,74.0,30.10,SW,230,0.0,0.0,92,0.00,,,0.00,,2013-07-07 07:11:00,
2013-07-07 03:22:00,76.0,74.0,30.10,SSE,155,0.0,0.0,92,0.00,,,0.00,,2013-07-07 07:22:00,
2013-07-07 03:33:00,76.0,74.0,30.10,WSW,240,0.0,0.0,92,0.00,,,0.00,,2013-07-07 07:33:00,
2013-07-07 03:44:00,76.0,74.0,30.10,WSW,240,0.0,0.0,92,0.00,,,0.00,,2013-07-07 07:44:00,
2013-07-07 03:53:00,76.0,74.0,30.10,West,260,0.0,0.0,93,0.00,,,0.00,,2013-07-07 07:53:00,
2013-07-07 04:02:00,76.0,74.0,30.10,West,275,0.0,0.0,93,0.00,,,0.00,,2013-07-07 08:02:00,
2013-07-07 04:12:00,76.0,74.0,30.10,West,275,0.0,0.0,93,0.00,,,0.00,,2013-07-07 08:12:00,
2013-07-07 04:22:00,76.0,74.0,30.07,NE,55,0.0,0.0,93,0.00,,,0.00,,2013-07-07 08:22:00,
2013-07-07 04:34:00,76.0,74.0,30.07,NE,55,0.0,0.0,93,0.00,,,0.00,,2013-07-07 08:34:00,
2013-07-07 04:44:00,76.0,74.0,30.07,NE,55,0.0,0.0,93,0.00,,,0.00,,2013-07-07 08:44:00,
2013-07-07 04:53:00,76.0,74.0,30.07,WSW,250,0.0,0.0,93,0.00,,,0.00,,2013-07-07 08:53:00,
2013-07-07 05:02:00,76.0,74.0,30.07,North,0,0.0,0.0,93,0.00,,,0.00,,2013-07-07 09:02:00,
2013-07-07 05:12:00,76.0,74.0,30.07,North,0,0.0,0.0,93,0.00,,,0.00,,2013-07-07 09:12:00,
2013-07-07 05:22:00,76.0,74.0,30.07,ESE,120,0.0,1.0,93,0.00,,,0.00,,2013-07-07 09:22:00,
2013-07-07 05:34:00,76.0,74.0,30.07,ESE,120,0.0,0.0,93,0.00,,,0.00,,2013-07-07 09:34:00,
2013-07-07 05:43:00,76.0,74.0,30.07,ESE,120,0.0,0.0,93,0.00,,,0.00,,2013-07-07 09:43:00,
2013-07-07 05:53:00,76.0,73.0,30.10,SW,215,0.0,0.0,91,0.00,,,0.00,,2013-07-07 09:53:00,
2013-07-07 06:03:00,76.0,73.0,30.10,WSW,255,0.0,0.0,91,0.00,,,0.00,,2013-07-07 10:03:00,
2013-07-07 06:12:00,76.0,73.0,30.10,WSW,255,0.0,0.0,91,0.00,,,0.00,,2013-07-07 10:12:00,
2013-07-07 06:23:00,76.0,74.0,30.10,SSW,195,0.0,1.0,92,0.00,,,0.00,,2013-07-07 10:23:00,
2013-07-07 06:32:00,76.0,74.0,30.10,South,170,0.0,0.0,93,0.00,,,0.00,,2013-07-07 10:32:00,
2013-07-07 06:43:00,76.0,74.0,30.10,South,170,0.0,0.0,93,0.00,,,0.00,,2013-07-07 10:43:00,
2013-07-07 06:52:00,76.0,74.0,30.10,ESE,105,0.0,1.0,92,0.00,,,0.00,,2013-07-07 10:52:00,
2013-07-07 07:02:00,76.0,73.0,30.10,SSW,210,0.0,2.0,91,0.00,,,0.00,,2013-07-07 11:02:00,
2013-07-07 07:12:00,76.0,73.0,30.10,SSW,210,0.0,2.0,91,0.00,,,0.00,,2013-07-07 11:12:00,
2013-07-07 07:23:00,77.0,72.0,30.10,South,180,1.0,2.0,86,0.00,,,0.00,,2013-07-07 11:23:00,
2013-07-07 07:34:00,79.0,72.0,30.10,West,275,1.0,0.0,80,0.00,,,0.00,,2013-07-07 11:34:00,
2013-07-07 07:43:00,79.0,72.0,30.10,West,275,1.0,0.0,80,0.00,,,0.00,,2013-07-07 11:43:00,
2013-07-07 07:53:00,82.0,72.0,30.10,NE,40,1.0,3.0,72,0.00,,,0.00,,2013-07-07 11:53:00,
2013-07-07 08:02:00,81.0,72.0,30.10,SSW,205,1.0,1.0,74,0.00,,,0.00,,2013-07-07 12:02:00,
2013-07-07 08:12:00,81.0,72.0,30.10,SSW,205,1.0,1.0,74,0.00,,,0.00,,2013-07-07 12:12:00,
2013-07-07 08:22:00,81.0,73.0,30.10,North,5,1.0,3.0,76,0.00,,,0.00,,2013-07-07 12:22:00,
2013-07-07 08:34:00,81.0,72.0,30.10,South,180,1.0,3.0,74,0.00,,,0.00,,2013-07-07 12:34:00,
2013-07-07 08:43:00,81.0,72.0,30.10,South,180,1.0,3.0,74,0.00,,,0.00,,2013-07-07 12:43:00,
2013-07-07 08:52:00,82.0,73.0,30.10,ENE,65,5.0,7.0,74,0.00,,,0.00,,2013-07-07 12:52:00,
2013-07-07 09:03:00,83.0,72.0,30.10,NE,35,3.0,5.0,69,0.00,,,0.00,,2013-07-07 13:03:00,
2013-07-07 09:12:00,83.0,72.0,30.10,NE,35,3.0,5.0,69,0.00,,,0.00,,2013-07-07 13:12:00,
2013-07-07 09:22:00,83.0,73.0,30.10,NNW,340,3.0,5.0,71,0.00,,,0.00,,2013-07-07 13:22:00,
2013-07-07 09:34:00,83.0,72.0,30.10,WNW,295,3.0,5.0,70,0.00,,,0.00,,2013-07-07 13:34:00,
2013-07-07 09:43:00,83.0,72.0,30.10,WNW,295,3.0,5.0,70,0.00,,,0.00,,2013-07-07 13:43:00,
2013-07-07 09:52:00,83.0,72.0,30.07,ESE,115,5.0,6.0,69,0.00,,,0.00,,2013-07-07 13:52:00,
2013-07-07 10:02:00,83.0,71.0,30.07,North,350,5.0,5.0,68,0.00,,,0.00,,2013-07-07 14:02:00,
2013-07-07 10:12:00,83.0,71.0,30.07,North,350,5.0,5.0,68,0.00,,,0.00,,2013-07-07 14:12:00,
2013-07-07 10:22:00,84.0,72.0,30.07,NW,315,3.0,5.0,68,0.00,,,0.00,,2013-07-07 14:22:00,
2013-07-07 10:34:00,85.0,73.0,30.07,East,100,3.0,5.0,67,0.00,,,0.00,,2013-07-07 14:34:00,
2013-07-07 10:43:00,85.0,73.0,30.07,East,100,3.0,5.0,67,0.00,,,0.00,,2013-07-07 14:43:00,
2013-07-07 10:53:00,86.0,73.0,30.07,WNW,295,5.0,9.0,65,0.00,,,0.00,,2013-07-07 14:53:00,
2013-07-07 11:02:00,86.0,72.0,30.07,NW,315,5.0,6.0,64,0.00,,,0.00,,2013-07-07 15:02:00,
2013-07-07 11:11:00,86.0,72.0,30.07,NW,315,5.0,6.0,64,0.00,,,0.00,,2013-07-07 15:11:00,
2013-07-07 11:22:00,87.0,73.0,30.07,West,280,5.0,8.0,64,0.00,,,0.00,,2013-07-07 15:22:00,
2013-07-07 11:34:00,87.0,73.0,30.07,West,260,6.0,8.0,63,0.00,,,0.00,,2013-07-07 15:34:00,
2013-07-07 11:43:00,87.0,73.0,30.07,West,260,6.0,8.0,63,0.00,,,0.00,,2013-07-07 15:43:00,
2013-07-07 11:52:00,89.0,73.0,30.07,WSW,255,5.0,7.0,60,0.00,,,0.00,,2013-07-07 15:52:00,
2013-07-07 12:02:00,90.0,73.0,30.07,West,270,5.0,5.0,58,0.00,,,0.00,,2013-07-07 16:02:00,
2013-07-07 12:11:00,90.0,73.0,30.07,West,270,5.0,5.0,58,0.00,,,0.00,,2013-07-07 16:11:00,
2013-07-07 12:23:00,91.0,74.0,30.07,WNW,285,5.0,6.0,57,0.00,,,0.00,,2013-07-07 16:23:00,
2013-07-07 12:43:00,91.0,73.0,30.07,South,175,5.0,5.0,55,0.00,,,0.00,,2013-07-07 16:43:00,
2013-07-07 13:02:00,93.0,73.0,30.07,West,260,5.0,6.0,53,0.00,,,0.00,,2013-07-07 17:02:00,
2013-07-07 13:12:00,93.0,73.0,30.07,West,260,5.0,6.0,53,0.00,,,0.00,,2013-07-07 17:12:00,
2013-07-07 13:22:00,93.0,74.0,30.07,WSW,240,3.0,6.0,54,0.00,,,0.00,,2013-07-07 17:22:00,
2013-07-07 13:34:00,94.0,74.0,30.04,NW,325,2.0,2.0,53,0.00,,,0.00,,2013-07-07 17:34:00,
2013-07-07 13:43:00,94.0,74.0,30.04,NW,325,2.0,2.0,53,0.00,,,0.00,,2013-07-07 17:43:00,
2013-07-07 13:53:00,94.0,74.0,30.04,SW,225,3.0,7.0,52,0.00,,,0.00,,2013-07-07 17:53:00,
2013-07-07 14:02:00,94.0,74.0,30.04,NW,315,3.0,5.0,52,0.00,,,0.00,,2013-07-07 18:02:00,
2013-07-07 14:12:00,94.0,74.0,30.04,NW,315,3.0,5.0,52,0.00,,,0.00,,2013-07-07 18:12:00,
2013-07-07 14:22:00,93.0,73.0,30.04,West,280,5.0,7.0,52,0.00,,,0.00,,2013-07-07 18:22:00,
2013-07-07 14:33:00,93.0,74.0,30.04,WSW,240,3.0,5.0,54,0.00,,,0.00,,2013-07-07 18:33:00,
2013-07-07 14:43:00,93.0,74.0,30.04,WSW,240,3.0,5.0,54,0.00,,,0.00,,2013-07-07 18:43:00,
2013-07-07 14:53:00,93.0,73.0,30.04,NW,310,3.0,8.0,53,0.00,,,0.00,,2013-07-07 18:53:00,
2013-07-07 15:01:00,94.0,74.0,30.04,WNW,285,3.0,3.0,52,0.00,,,0.00,,2013-07-07 19:01:00,
2013-07-07 15:11:00,94.0,74.0,30.04,WNW,285,3.0,3.0,52,0.00,,,0.00,,2013-07-07 19:11:00,
2013-07-07 15:22:00,94.0,73.0,30.01,West,260,3.0,7.0,51,0.00,,,0.00,,2013-07-07 19:22:00,
2013-07-07 15:34:00,94.0,73.0,30.01,WNW,285,3.0,6.0,51,0.00,,,0.00,,2013-07-07 19:34:00,
2013-07-07 15:43:00,94.0,73.0,30.01,WNW,285,3.0,6.0,51,0.00,,,0.00,,2013-07-07 19:43:00,
2013-07-07 15:54:00,94.0,74.0,30.01,West,275,5.0,7.0,52,0.00,,,0.00,,2013-07-07 19:54:00,
2013-07-07 16:02:00,94.0,74.0,30.01,NW,310,5.0,7.0,52,0.00,,,0.00,,2013-07-07 20:02:00,
2013-07-07 16:11:00,94.0,74.0,30.01,NW,310,5.0,7.0,52,0.00,,,0.00,,2013-07-07 20:11:00,
2013-07-07 16:22:00,94.0,73.0,30.01,West,270,3.0,9.0,51,0.00,,,0.00,,2013-07-07 20:22:00,
2013-07-07 19:02:00,91.0,72.0,30.01,WNW,295,3.0,6.0,54,0.00,,,0.00,,2013-07-07 23:02:00,
2013-07-07 19:12:00,91.0,72.0,30.01,WNW,295,3.0,6.0,54,0.00,,,0.00,,2013-07-07 23:12:00,
2013-07-07 19:22:00,89.0,72.0,30.01,WSW,255,3.0,8.0,57,0.00,,,0.00,,2013-07-07 23:22:00,
2013-07-07 19:33:00,89.0,72.0,30.01,West,280,3.0,6.0,57,0.00,,,0.00,,2013-07-07 23:33:00,
2013-07-07 19:43:00,89.0,72.0,30.01,West,280,3.0,6.0,57,0.00,,,0.00,,2013-07-07 23:43:00,
2013-07-07 19:53:00,87.0,71.0,29.98,SSE,160,3.0,6.0,59,0.00,,,0.00,,2013-07-07 23:53:00,
2013-07-07 20:02:00,86.0,70.0,29.98,SW,220,2.0,6.0,60,0.00,,,0.00,,2013-07-08 00:02:00,
2013-07-07 20:12:00,86.0,70.0,29.98,SW,220,2.0,6.0,60,0.00,,,0.00,,2013-07-08 00:12:00,
2013-07-07 20:22:00,85.0,70.0,30.01,North,0,2.0,6.0,61,0.00,,,0.00,,2013-07-08 00:22:00,
2013-07-07 20:33:00,85.0,70.0,30.01,WSW,240,2.0,2.0,62,0.00,,,0.00,,2013-07-08 00:33:00,
2013-07-07 20:43:00,85.0,70.0,30.01,WSW,240,2.0,2.0,62,0.00,,,0.00,,2013-07-08 00:43:00,
2013-07-07 20:53:00,84.0,70.0,30.01,SSW,195,1.0,2.0,63,0.00,,,0.00,,2013-07-08 00:53:00,
2013-07-07 21:01:00,84.0,70.0,30.01,SSW,210,1.0,0.0,63,0.00,,,0.00,,2013-07-08 01:01:00,
2013-07-07 21:11:00,84.0,70.0,30.01,SSW,210,1.0,0.0,63,0.00,,,0.00,,2013-07-08 01:11:00,
2013-07-07 21:22:00,83.0,70.0,30.01,NW,315,1.0,2.0,66,0.01,,,0.01,,2013-07-08 01:22:00,
2013-07-07 21:32:00,83.0,70.0,30.01,West,270,1.0,0.0,66,0.01,,,0.01,,2013-07-08 01:32:00,
2013-07-07 21:43:00,83.0,70.0,30.01,West,270,1.0,0.0,66,0.01,,,0.01,,2013-07-08 01:43:00,
2013-07-07 21:53:00,82.0,71.0,30.01,NW,315,0.0,0.0,69,0.03,,,0.03,,2013-07-08 01:53:00,
2013-07-07 22:02:00,82.0,71.0,30.01,SW,230,0.0,0.0,69,0.03,,,0.03,,2013-07-08 02:02:00,
2013-07-07 22:11:00,82.0,71.0,30.01,SW,230,0.0,0.0,69,0.03,,,0.03,,2013-07-08 02:11:00,
2013-07-07 22:22:00,82.0,71.0,30.01,SSW,210,0.0,1.0,69,0.01,,,0.03,,2013-07-08 02:22:00,
2013-07-07 22:33:00,82.0,71.0,30.01,NE,50,0.0,0.0,70,0.01,,,0.03,,2013-07-08 02:33:00,
2013-07-07 22:42:00,82.0,71.0,30.01,NE,50,0.0,0.0,70,0.01,,,0.03,,2013-07-08 02:42:00,
2013-07-07 22:52:00,81.0,70.0,30.04,NNW,340,1.0,5.0,70,0.00,,,0.03,,2013-07-08 02:52:00,
2013-07-07 23:02:00,80.0,70.0,30.04,NNW,340,1.0,0.0,72,0.00,,,0.03,,2013-07-08 03:02:00,
2013-07-07 23:12:00,80.0,70.0,30.04,NNW,340,1.0,0.0,72,0.00,,,0.03,,2013-07-08 03:12:00,
2013-07-07 23:23:00,79.0,71.0,30.01,NNW,340,0.0,0.0,77,0.00,,,0.03,,2013-07-08 03:23:00,
2013-07-07 23:34:00,79.0,72.0,30.04,NNW,340,0.0,0.0,78,0.00,,,0.03,,2013-07-08 03:34:00,
2013-07-07 23:42:00,79.0,72.0,30.04,NNW,340,0.0,0.0,78,0.00,,,0.03,,2013-07-08 03:42:00,
2013-07-07 23:52:00,79.0,70.0,30.04,NW,305,0.0,0.0,74,0.00,,,0.03,,2013-07-08 03:52:00,